Time,TemperatureF,DewpointF,PressureIn,WindDirection,WindDirectionDegrees,WindSpeedMPH,WindSpeedGustMPH,Humidity,HourlyPrecipIn,Conditions,Clouds,dailyrainin,SoftwareType,DateUTC
2013-03-05 00:02:00,35.0,23.0,30.04,North,0,0.0,0.0,60,0.00,,,0.00,,2013-03-05 05:02:00,
2013-03-05 00:12:00,35.0,23.0,30.04,North,0,0.0,0.0,60,0.00,,,0.00,,2013-03-05 05:12:00,
2013-03-05 00:22:00,35.0,23.0,30.04,North,0,0.0,0.0,60,0.00,,,0.00,,2013-03-05 05:22:00,
2013-03-05 00:32:00,35.0,22.0,30.03,North,0,0.0,0.0,59,0.00,,,0.00,,2013-03-05 05:32:00,
2013-03-05 00:42:00,35.0,22.0,30.03,North,0,0.0,0.0,59,0.00,,,0.00,,2013-03-05 05:42:00,
2013-03-05 00:52:00,35.0,23.0,30.03,North,0,0.0,0.0,61,0.00,,,0.00,,2013-03-05 05:52:00,
2013-03-05 01:01:00,36.0,25.0,30.03,North,0,0.0,0.0,63,0.00,,,0.00,,2013-03-05 06:01:00,
2013-03-05 01:11:00,36.0,25.0,30.03,North,0,0.0,0.0,63,0.00,,,0.00,,2013-03-05 06:11:00,
2013-03-05 01:22:00,37.0,25.0,30.04,North,0,0.0,0.0,61,0.00,,,0.00,,2013-03-05 06:22:00,
2013-03-05 01:32:00,38.0,24.0,30.04,North,0,0.0,1.0,56,0.00,,,0.00,,2013-03-05 06:32:00,
2013-03-05 01:42:00,38.0,24.0,30.04,North,0,0.0,1.0,56,0.00,,,0.00,,2013-03-05 06:42:00,
2013-03-05 01:52:00,38.0,23.0,30.04,North,0,0.0,1.0,54,0.00,,,0.00,,2013-03-05 06:52:00,
2013-03-05 02:01:00,39.0,24.0,30.04,North,0,0.0,0.0,55,0.00,,,0.00,,2013-03-05 07:01:00,
2013-03-05 02:11:00,39.0,24.0,30.04,North,0,0.0,0.0,55,0.00,,,0.00,,2013-03-05 07:11:00,
2013-03-05 02:22:00,39.0,25.0,30.04,North,0,0.0,0.0,58,0.00,,,0.00,,2013-03-05 07:22:00,
2013-03-05 02:32:00,39.0,25.0,30.04,North,0,0.0,0.0,57,0.00,,,0.00,,2013-03-05 07:32:00,
2013-03-05 02:41:00,39.0,25.0,30.04,North,0,0.0,0.0,57,0.00,,,0.00,,2013-03-05 07:41:00,
2013-03-05 02:52:00,39.0,25.0,30.04,North,0,0.0,0.0,58,0.00,,,0.00,,2013-03-05 07:52:00,
2013-03-05 03:02:00,39.0,24.0,30.03,North,0,0.0,0.0,55,0.00,,,0.00,,2013-03-05 08:02:00,
2013-03-05 03:11:00,39.0,24.0,30.03,North,0,0.0,0.0,55,0.00,,,0.00,,2013-03-05 08:11:00,
2013-03-05 03:21:00,39.0,24.0,30.03,North,0,0.0,0.0,55,0.00,,,0.00,,2013-03-05 08:21:00,
2013-03-05 03:31:00,40.0,23.0,30.03,North,0,0.0,0.0,51,0.00,,,0.00,,2013-03-05 08:31:00,
2013-03-05 03:41:00,40.0,23.0,30.03,North,0,0.0,0.0,51,0.00,,,0.00,,2013-03-05 08:41:00,
2013-03-05 03:52:00,41.0,24.0,30.03,North,0,0.0,0.0,51,0.00,,,0.00,,2013-03-05 08:52:00,
2013-03-05 04:01:00,41.0,24.0,30.03,North,0,0.0,0.0,51,0.00,,,0.00,,2013-03-05 09:01:00,
2013-03-05 04:11:00,41.0,27.0,30.03,North,0,0.0,0.0,56,0.00,,,0.00,,2013-03-05 09:11:00,
2013-03-05 04:21:00,41.0,27.0,30.03,North,0,0.0,0.0,56,0.00,,,0.00,,2013-03-05 09:21:00,
2013-03-05 04:31:00,41.0,25.0,30.03,North,0,0.0,0.0,53,0.00,,,0.00,,2013-03-05 09:31:00,
2013-03-05 04:42:00,41.0,25.0,30.03,North,0,0.0,0.0,53,0.00,,,0.00,,2013-03-05 09:42:00,
2013-03-05 04:52:00,40.0,24.0,30.03,North,0,0.0,0.0,53,0.00,,,0.00,,2013-03-05 09:52:00,
2013-03-05 05:01:00,40.0,25.0,30.03,North,0,0.0,0.0,55,0.00,,,0.00,,2013-03-05 10:01:00,
2013-03-05 05:11:00,40.0,25.0,30.03,North,0,0.0,0.0,55,0.00,,,0.00,,2013-03-05 10:11:00,
2013-03-05 05:21:00,40.0,25.0,30.04,North,0,0.0,0.0,54,0.00,,,0.00,,2013-03-05 10:21:00,
2013-03-05 05:32:00,39.0,25.0,30.04,North,0,0.0,0.0,56,0.00,,,0.00,,2013-03-05 10:32:00,
2013-03-05 05:42:00,39.0,25.0,30.04,North,0,0.0,0.0,56,0.00,,,0.00,,2013-03-05 10:42:00,
2013-03-05 05:52:00,38.0,25.0,30.05,North,0,0.0,0.0,58,0.00,,,0.00,,2013-03-05 10:52:00,
2013-03-05 06:01:00,38.0,25.0,30.04,North,0,0.0,0.0,59,0.00,,,0.00,,2013-03-05 11:01:00,
2013-03-05 06:11:00,37.0,24.0,30.04,North,0,0.0,0.0,60,0.00,,,0.00,,2013-03-05 11:11:00,
2013-03-05 06:22:00,37.0,24.0,30.04,North,0,0.0,0.0,60,0.00,,,0.00,,2013-03-05 11:22:00,
2013-03-05 06:32:00,36.0,25.0,30.03,North,0,0.0,0.0,63,0.00,,,0.00,,2013-03-05 11:32:00,
2013-03-05 06:42:00,36.0,25.0,30.03,North,0,0.0,0.0,63,0.00,,,0.00,,2013-03-05 11:42:00,
2013-03-05 06:52:00,36.0,25.0,30.04,North,0,0.0,0.0,64,0.00,,,0.00,,2013-03-05 11:52:00,
2013-03-05 07:02:00,35.0,25.0,30.03,North,0,0.0,0.0,67,0.00,,,0.00,,2013-03-05 12:02:00,
2013-03-05 07:12:00,35.0,25.0,30.03,North,0,0.0,0.0,67,0.00,,,0.00,,2013-03-05 12:12:00,
2013-03-05 07:22:00,35.0,26.0,30.03,North,0,0.0,0.0,68,0.00,,,0.00,,2013-03-05 12:22:00,
2013-03-05 07:32:00,35.0,26.0,30.03,North,0,0.0,0.0,70,0.00,,,0.00,,2013-03-05 12:32:00,
2013-03-05 07:42:00,35.0,26.0,30.03,North,0,0.0,0.0,70,0.00,,,0.00,,2013-03-05 12:42:00,
2013-03-05 07:53:00,35.0,26.0,30.03,North,0,0.0,0.0,70,0.00,,,0.00,,2013-03-05 12:53:00,
2013-03-05 08:02:00,36.0,27.0,30.02,North,0,0.0,1.0,70,0.00,,,0.00,,2013-03-05 13:02:00,
2013-03-05 08:11:00,36.0,27.0,30.02,North,0,0.0,1.0,70,0.00,,,0.00,,2013-03-05 13:11:00,
2013-03-05 08:22:00,36.0,27.0,30.02,North,0,0.0,1.0,70,0.00,,,0.00,,2013-03-05 13:22:00,
2013-03-05 08:32:00,42.0,27.0,30.02,North,0,0.0,1.0,56,0.00,,,0.00,,2013-03-05 13:32:00,
2013-03-05 08:42:00,42.0,27.0,30.02,North,0,0.0,1.0,56,0.00,,,0.00,,2013-03-05 13:42:00,
2013-03-05 08:52:00,43.0,28.0,30.01,North,0,0.0,3.0,54,0.00,,,0.00,,2013-03-05 13:52:00,
2013-03-05 09:02:00,43.0,28.0,30.02,North,0,0.0,4.0,55,0.00,,,0.00,,2013-03-05 14:02:00,
2013-03-05 09:11:00,43.0,28.0,30.02,North,0,0.0,4.0,55,0.00,,,0.00,,2013-03-05 14:11:00,
2013-03-05 09:22:00,43.0,28.0,30.03,North,0,0.0,4.0,54,0.00,,,0.00,,2013-03-05 14:22:00,
2013-03-05 09:32:00,45.0,29.0,30.02,North,0,0.0,3.0,53,0.00,,,0.00,,2013-03-05 14:32:00,
2013-03-05 09:42:00,45.0,29.0,30.02,North,0,0.0,3.0,53,0.00,,,0.00,,2013-03-05 14:42:00,
2013-03-05 09:52:00,45.0,29.0,30.01,North,0,0.0,1.0,54,0.00,,,0.00,,2013-03-05 14:52:00,
2013-03-05 10:02:00,45.0,29.0,30.01,North,0,0.0,2.0,53,0.00,,,0.00,,2013-03-05 15:02:00,
2013-03-05 10:11:00,45.0,29.0,30.01,North,0,0.0,2.0,53,0.00,,,0.00,,2013-03-05 15:11:00,
2013-03-05 10:21:00,45.0,30.0,30.01,North,0,0.0,1.0,55,0.00,,,0.00,,2013-03-05 15:21:00,
2013-03-05 10:32:00,45.0,30.0,30.00,North,0,0.0,1.0,55,0.00,,,0.00,,2013-03-05 15:32:00,
2013-03-05 10:42:00,45.0,30.0,30.00,North,0,0.0,1.0,55,0.00,,,0.00,,2013-03-05 15:42:00,
2013-03-05 10:52:00,45.0,30.0,29.99,North,0,0.0,4.0,56,0.00,,,0.00,,2013-03-05 15:52:00,
2013-03-05 11:02:00,46.0,31.0,30.00,North,0,0.0,2.0,56,0.00,,,0.00,,2013-03-05 16:02:00,
2013-03-05 11:11:00,46.0,31.0,30.00,North,0,0.0,2.0,56,0.00,,,0.00,,2013-03-05 16:11:00,
2013-03-05 11:21:00,46.0,31.0,30.00,North,0,0.0,2.0,56,0.00,,,0.00,,2013-03-05 16:21:00,
2013-03-05 11:32:00,46.0,36.0,30.00,North,0,0.0,5.0,68,0.00,,,0.00,,2013-03-05 16:32:00,
2013-03-05 11:42:00,46.0,36.0,30.00,North,0,0.0,5.0,68,0.00,,,0.00,,2013-03-05 16:42:00,
2013-03-05 11:52:00,45.0,38.0,29.99,North,0,0.0,2.0,75,0.01,,,0.01,,2013-03-05 16:52:00,
2013-03-05 12:01:00,44.0,39.0,29.99,North,0,0.0,1.0,81,0.01,,,0.01,,2013-03-05 17:01:00,
2013-03-05 12:11:00,44.0,39.0,29.99,North,0,0.0,1.0,81,0.01,,,0.01,,2013-03-05 17:11:00,
2013-03-05 12:21:00,43.0,38.0,29.98,North,0,0.0,2.0,84,0.02,,,0.02,,2013-03-05 17:21:00,
2013-03-05 12:32:00,43.0,40.0,29.97,North,0,0.0,0.0,88,0.02,,,0.02,,2013-03-05 17:32:00,
2013-03-05 12:42:00,43.0,40.0,29.97,North,0,0.0,0.0,88,0.02,,,0.02,,2013-03-05 17:42:00,
2013-03-05 12:52:00,42.0,39.0,29.96,North,0,0.0,2.0,89,0.02,,,0.03,,2013-03-05 17:52:00,
2013-03-05 13:02:00,42.0,39.0,29.95,North,0,0.0,1.0,90,0.03,,,0.04,,2013-03-05 18:02:00,
2013-03-05 13:11:00,42.0,39.0,29.95,North,0,0.0,1.0,90,0.03,,,0.04,,2013-03-05 18:11:00,
2013-03-05 13:22:00,42.0,40.0,29.94,North,0,0.0,0.0,91,0.03,,,0.05,,2013-03-05 18:22:00,
2013-03-05 13:32:00,42.0,40.0,29.93,North,0,0.0,1.0,92,0.05,,,0.07,,2013-03-05 18:32:00,
2013-03-05 13:42:00,42.0,40.0,29.93,North,0,0.0,1.0,92,0.05,,,0.07,,2013-03-05 18:42:00,
2013-03-05 13:52:00,42.0,40.0,29.92,North,0,0.0,1.0,92,0.04,,,0.07,,2013-03-05 18:52:00,
2013-03-05 14:01:00,42.0,40.0,29.91,North,0,0.0,3.0,93,0.03,,,0.07,,2013-03-05 19:01:00,
2013-03-05 14:11:00,42.0,40.0,29.91,North,0,0.0,3.0,93,0.03,,,0.07,,2013-03-05 19:11:00,
2013-03-05 14:21:00,42.0,40.0,29.91,North,0,0.0,3.0,93,0.03,,,0.07,,2013-03-05 19:21:00,
2013-03-05 14:32:00,42.0,40.0,29.90,North,0,0.0,1.0,93,0.00,,,0.07,,2013-03-05 19:32:00,
2013-03-05 14:42:00,42.0,40.0,29.90,North,0,0.0,1.0,93,0.00,,,0.07,,2013-03-05 19:42:00,
2013-03-05 14:52:00,42.0,40.0,29.89,North,0,0.0,0.0,94,0.00,,,0.07,,2013-03-05 19:52:00,
2013-03-05 15:01:00,42.0,40.0,29.87,North,0,0.0,4.0,94,0.00,,,0.07,,2013-03-05 20:01:00,
2013-03-05 15:11:00,42.0,41.0,29.88,North,0,0.0,2.0,95,0.00,,,0.07,,2013-03-05 20:11:00,
2013-03-05 15:22:00,42.0,41.0,29.88,North,0,0.0,2.0,95,0.00,,,0.07,,2013-03-05 20:22:00,
2013-03-05 15:32:00,42.0,41.0,29.87,North,0,0.0,2.0,95,0.01,,,0.08,,2013-03-05 20:32:00,
2013-03-05 15:42:00,42.0,41.0,29.87,North,0,0.0,2.0,95,0.01,,,0.08,,2013-03-05 20:42:00,
2013-03-05 15:52:00,42.0,41.0,29.87,North,0,0.0,0.0,95,0.01,,,0.08,,2013-03-05 20:52:00,
2013-03-05 16:02:00,42.0,41.0,29.86,North,0,0.0,0.0,95,0.01,,,0.08,,2013-03-05 21:02:00,
2013-03-05 16:11:00,42.0,41.0,29.86,North,0,0.0,0.0,95,0.01,,,0.08,,2013-03-05 21:11:00,
2013-03-05 16:22:00,43.0,42.0,29.85,North,0,0.0,0.0,95,0.02,,,0.09,,2013-03-05 21:22:00,
2013-03-05 16:32:00,43.0,42.0,29.84,North,0,0.0,0.0,95,0.01,,,0.09,,2013-03-05 21:32:00,
2013-03-05 16:42:00,43.0,42.0,29.84,North,0,0.0,0.0,95,0.01,,,0.09,,2013-03-05 21:42:00,
2013-03-05 16:52:00,43.0,42.0,29.85,North,0,0.0,0.0,95,0.03,,,0.11,,2013-03-05 21:52:00,
2013-03-05 17:01:00,43.0,42.0,29.84,North,0,0.0,0.0,95,0.03,,,0.11,,2013-03-05 22:01:00,
2013-03-05 17:11:00,43.0,42.0,29.84,North,0,0.0,0.0,95,0.03,,,0.11,,2013-03-05 22:11:00,
2013-03-05 17:22:00,43.0,42.0,29.83,North,0,0.0,0.0,95,0.02,,,0.11,,2013-03-05 22:22:00,
2013-03-05 17:32:00,43.0,42.0,29.83,North,0,0.0,0.0,95,0.02,,,0.11,,2013-03-05 22:32:00,
2013-03-05 17:42:00,43.0,42.0,29.83,North,0,0.0,0.0,95,0.02,,,0.11,,2013-03-05 22:42:00,
2013-03-05 17:52:00,43.0,42.0,29.82,North,0,0.0,0.0,95,0.00,,,0.11,,2013-03-05 22:52:00,
2013-03-05 18:01:00,43.0,42.0,29.80,North,0,0.0,0.0,95,0.00,,,0.11,,2013-03-05 23:01:00,
2013-03-05 18:11:00,43.0,42.0,29.80,North,0,0.0,0.0,95,0.00,,,0.11,,2013-03-05 23:11:00,
2013-03-05 18:21:00,43.0,42.0,29.80,North,0,0.0,0.0,95,0.00,,,0.11,,2013-03-05 23:21:00,
2013-03-05 18:32:00,43.0,42.0,29.79,North,0,0.0,1.0,95,0.00,,,0.11,,2013-03-05 23:32:00,
2013-03-05 18:42:00,43.0,42.0,29.79,North,0,0.0,1.0,95,0.00,,,0.11,,2013-03-05 23:42:00,
2013-03-05 18:53:00,43.0,42.0,29.78,North,0,0.0,0.0,95,0.00,,,0.11,,2013-03-05 23:53:00,
2013-03-05 19:02:00,43.0,42.0,29.76,North,0,0.0,1.0,95,0.00,,,0.11,,2013-03-06 00:02:00,
2013-03-05 19:11:00,43.0,42.0,29.76,North,0,0.0,1.0,95,0.00,,,0.11,,2013-03-06 00:11:00,
2013-03-05 19:21:00,43.0,42.0,29.76,North,0,0.0,2.0,95,0.00,,,0.11,,2013-03-06 00:21:00,
2013-03-05 19:32:00,43.0,42.0,29.76,North,0,0.0,2.0,95,0.00,,,0.11,,2013-03-06 00:32:00,
2013-03-05 19:42:00,43.0,42.0,29.76,North,0,0.0,2.0,95,0.00,,,0.11,,2013-03-06 00:42:00,
2013-03-05 19:52:00,43.0,42.0,29.74,North,0,0.0,1.0,96,0.00,,,0.11,,2013-03-06 00:52:00,
2013-03-05 20:02:00,43.0,42.0,29.70,North,0,0.0,2.0,96,0.00,,,0.11,,2013-03-06 01:02:00,
2013-03-05 20:11:00,43.0,42.0,29.70,North,0,0.0,2.0,96,0.00,,,0.11,,2013-03-06 01:11:00,
2013-03-05 20:21:00,43.0,42.0,29.68,WSW,254,1.0,3.0,96,0.00,,,0.11,,2013-03-06 01:21:00,
2013-03-05 20:32:00,43.0,42.0,29.67,North,0,0.0,3.0,96,0.00,,,0.11,,2013-03-06 01:32:00,
2013-03-05 20:42:00,43.0,42.0,29.67,North,0,0.0,3.0,96,0.00,,,0.11,,2013-03-06 01:42:00,
2013-03-05 20:52:00,43.0,42.0,29.66,North,0,0.0,3.0,96,0.00,,,0.11,,2013-03-06 01:52:00,
2013-03-05 21:01:00,43.0,42.0,29.65,North,0,0.0,4.0,96,0.00,,,0.11,,2013-03-06 02:01:00,
2013-03-05 21:11:00,43.0,42.0,29.65,North,0,0.0,4.0,96,0.00,,,0.11,,2013-03-06 02:11:00,
2013-03-05 21:22:00,43.0,42.0,29.64,North,0,0.0,2.0,96,0.01,,,0.12,,2013-03-06 02:22:00,
2013-03-05 21:32:00,43.0,42.0,29.63,North,0,0.0,4.0,96,0.01,,,0.12,,2013-03-06 02:32:00,
2013-03-05 21:42:00,43.0,42.0,29.63,North,0,0.0,4.0,96,0.01,,,0.12,,2013-03-06 02:42:00,
2013-03-05 21:52:00,43.0,42.0,29.62,North,0,0.0,4.0,96,0.04,,,0.15,,2013-03-06 02:52:00,
2013-03-05 22:02:00,43.0,42.0,29.61,North,0,0.0,3.0,96,0.06,,,0.17,,2013-03-06 03:02:00,
2013-03-05 22:11:00,43.0,42.0,29.61,North,0,0.0,3.0,96,0.06,,,0.17,,2013-03-06 03:11:00,
2013-03-05 22:22:00,43.0,42.0,29.61,North,0,0.0,3.0,96,0.06,,,0.17,,2013-03-06 03:22:00,
2013-03-05 22:32:00,43.0,42.0,29.60,North,0,0.0,2.0,96,0.09,,,0.22,,2013-03-06 03:32:00,
2013-03-05 22:42:00,43.0,42.0,29.60,North,0,0.0,2.0,96,0.09,,,0.22,,2013-03-06 03:42:00,
2013-03-05 22:53:00,43.0,42.0,29.59,North,0,0.0,1.0,97,0.07,,,0.22,,2013-03-06 03:53:00,
2013-03-05 23:02:00,44.0,43.0,29.57,North,0,0.0,1.0,97,0.03,,,0.22,,2013-03-06 04:02:00,
2013-03-05 23:11:00,44.0,43.0,29.57,North,0,0.0,1.0,97,0.03,,,0.22,,2013-03-06 04:11:00,
2013-03-05 23:22:00,44.0,43.0,29.57,North,0,0.0,1.0,97,0.02,,,0.22,,2013-03-06 04:22:00,
2013-03-05 23:32:00,44.0,43.0,29.55,North,0,0.0,1.0,97,0.00,,,0.22,,2013-03-06 04:32:00,
2013-03-05 23:42:00,44.0,43.0,29.55,North,0,0.0,1.0,97,0.00,,,0.22,,2013-03-06 04:42:00,
2013-03-05 23:52:00,44.0,43.0,29.54,North,0,0.0,1.0,97,0.00,,,0.22,,2013-03-06 04:52:00,